7 * 24
多渠道服务支持
IRIDIUM 133 是美国 Iridium 公司运营的 Iridium 卫星星座中的一颗通信卫星,属于第二代 Iridium NEXT 系统。该卫星于 2017 年发射,运行在低地球轨道,提供全球范围的语音和数据通信服务。IRIDIUM 133 与其他卫星协同工作,支持航空、航海、应急响应等领域的移动通信需求。该系统采用先进的卫星技术和星间链路,提升了通信质量与覆盖范围,是现代卫星通信的重要组成部分。
美国
(US)
| 数据来源 | 国际轨道数据 |
| 星历时间: | 2025-12-13T01:59:28+0800 15小时前 查看轨道信息 |
| 半长轴: | 7155.807km |
| 偏心率: | 0.0002077 |
| 轨道倾角: | 86.397° |
| 近地点辐角 | 97.626° |
| 升交点赤经 | 103.229° |
| 平近点角 | 262.517° |
| 近地点: | 776.185km |
| 远地点: | 779.159km |
| 周期: | 100.403分钟 |
| 每日圈数: | 14.342169 |